Time,TemperatureF,DewpointF,PressureIn,WindDirection,WindDirectionDegrees,WindSpeedMPH,WindSpeedGustMPH,Humidity,HourlyPrecipIn,Conditions,Clouds,dailyrainin,SoftwareType,DateUTC
2013-03-03 00:06:00,36.7,34.5,30.22,NW,315,0.0,0.0,92,0.00,,,0.00,WUHU21623XXSP,2013-03-03 08:06:00,
2013-03-03 00:12:00,36.7,34.5,30.21,NW,315,0.0,0.0,92,0.00,,,0.00,WUHU21623XXSP,2013-03-03 08:12:00,
2013-03-03 00:20:00,36.7,34.5,30.21,NW,315,0.0,0.0,92,0.00,,,0.00,WUHU21623XXSP,2013-03-03 08:20:00,
2013-03-03 00:26:00,36.7,34.5,30.22,NW,315,0.0,0.0,92,0.00,,,0.00,WUHU21623XXSP,2013-03-03 08:26:00,
2013-03-03 00:32:00,36.7,34.5,30.22,NW,315,0.0,0.0,92,0.00,,,0.00,WUHU21623XXSP,2013-03-03 08:32:00,
2013-03-03 00:40:00,36.7,34.5,30.22,NW,315,0.0,0.0,92,0.00,,,0.00,WUHU21623XXSP,2013-03-03 08:40:00,
2013-03-03 00:47:00,36.7,34.5,30.22,NW,315,0.0,0.0,92,0.00,,,0.00,WUHU21623XXSP,2013-03-03 08:47:00,
2013-03-03 00:52:00,36.7,34.8,30.22,NW,315,0.0,0.0,93,0.00,,,0.00,WUHU21623XXSP,2013-03-03 08:52:00,
2013-03-03 00:57:00,36.7,34.5,30.22,NW,315,0.0,0.0,92,0.00,,,0.00,WUHU21623XXSP,2013-03-03 08:57:00,
2013-03-03 01:02:00,36.7,34.5,30.22,NW,315,0.0,0.0,92,0.00,,,0.00,WUHU21623XXSP,2013-03-03 09:02:00,
2013-03-03 01:07:00,36.7,34.8,30.23,NW,315,0.0,0.7,93,0.00,,,0.00,WUHU21623XXSP,2013-03-03 09:07:00,
2013-03-03 01:12:00,36.7,34.8,30.22,NW,315,0.0,0.7,93,0.00,,,0.00,WUHU21623XXSP,2013-03-03 09:12:00,
2013-03-03 01:21:00,36.9,35.0,30.22,NW,315,0.0,0.7,93,0.00,,,0.00,WUHU21623XXSP,2013-03-03 09:21:00,
2013-03-03 01:26:00,37.0,35.1,30.23,NW,315,0.0,0.2,93,0.00,,,0.00,WUHU21623XXSP,2013-03-03 09:26:00,
2013-03-03 01:31:00,37.0,35.1,30.23,NW,315,0.9,1.1,93,0.00,,,0.00,WUHU21623XXSP,2013-03-03 09:31:00,
2013-03-03 01:38:00,37.0,35.1,30.23,NW,315,0.0,1.1,93,0.00,,,0.00,WUHU21623XXSP,2013-03-03 09:38:00,
2013-03-03 01:43:00,37.0,35.1,30.23,NW,315,0.0,1.3,93,0.00,,,0.00,WUHU21623XXSP,2013-03-03 09:43:00,
2013-03-03 01:52:00,37.0,35.1,30.23,NW,315,0.0,1.3,93,0.00,,,0.00,WUHU21623XXSP,2013-03-03 09:52:00,
2013-03-03 02:06:00,37.0,35.1,30.24,NW,315,0.0,0.0,93,0.00,,,0.00,WUHU21623XXSP,2013-03-03 10:06:00,
2013-03-03 02:12:00,37.0,35.1,30.24,NW,315,0.0,0.0,93,0.00,,,0.00,WUHU21623XXSP,2013-03-03 10:12:00,
2013-03-03 02:17:00,37.2,35.3,30.24,NW,315,0.0,0.0,93,0.00,,,0.00,WUHU21623XXSP,2013-03-03 10:17:00,
2013-03-03 02:22:00,37.2,35.3,30.24,NW,315,0.0,0.0,93,0.00,,,0.00,WUHU21623XXSP,2013-03-03 10:22:00,
2013-03-03 02:27:00,37.2,35.3,30.23,NW,315,0.0,0.0,93,0.00,,,0.00,WUHU21623XXSP,2013-03-03 10:27:00,
2013-03-03 02:35:00,37.2,35.3,30.24,NW,315,0.0,0.0,93,0.00,,,0.00,WUHU21623XXSP,2013-03-03 10:35:00,
2013-03-03 02:41:00,37.2,35.3,30.24,NW,315,0.0,0.0,93,0.00,,,0.00,WUHU21623XXSP,2013-03-03 10:41:00,
2013-03-03 02:48:00,37.2,35.3,30.25,NW,315,0.0,0.0,93,0.00,,,0.00,WUHU21623XXSP,2013-03-03 10:48:00,
2013-03-03 02:53:00,37.2,35.3,30.25,NW,315,0.0,0.0,93,0.00,,,0.00,WUHU21623XXSP,2013-03-03 10:53:00,
2013-03-03 03:06:00,37.2,35.3,30.25,NW,315,0.0,0.0,93,0.00,,,0.00,WUHU21623XXSP,2013-03-03 11:06:00,
2013-03-03 03:14:00,37.0,35.1,30.24,West,270,0.0,1.3,93,0.00,,,0.00,WUHU21623XXSP,2013-03-03 11:14:00,
2013-03-03 03:19:00,36.9,35.0,30.24,SSE,157,0.0,1.3,93,0.00,,,0.00,WUHU21623XXSP,2013-03-03 11:19:00,
2013-03-03 03:27:00,36.9,35.0,30.24,SSE,157,0.0,0.0,93,0.00,,,0.00,WUHU21623XXSP,2013-03-03 11:27:00,
2013-03-03 03:35:00,36.7,34.8,30.25,SSE,157,0.0,0.0,93,0.00,,,0.00,WUHU21623XXSP,2013-03-03 11:35:00,
2013-03-03 03:36:00,36.7,34.8,30.25,SSE,157,0.0,0.7,93,0.00,,,0.00,WUHU21623XXSP,2013-03-03 11:36:00,
2013-03-03 03:45:00,36.5,34.6,30.25,SSE,157,0.0,0.0,93,0.02,,,0.00,WUHU21623XXSP,2013-03-03 11:45:00,
2013-03-03 03:52:00,36.5,34.6,30.25,SSE,157,0.0,0.0,93,0.02,,,0.02,WUHU21623XXSP,2013-03-03 11:52:00,
2013-03-03 03:53:00,36.5,34.6,30.25,SSE,157,0.0,0.0,93,0.02,,,0.02,WUHU21623XXSP,2013-03-03 11:53:00,
2013-03-03 03:59:00,36.5,34.6,30.25,SSE,157,0.0,0.0,93,0.02,,,0.02,WUHU21623XXSP,2013-03-03 11:59:00,
2013-03-03 04:08:00,36.5,34.6,30.25,NE,45,0.0,0.0,93,0.02,,,0.02,WUHU21623XXSP,2013-03-03 12:08:00,
2013-03-03 04:13:00,36.5,34.6,30.25,NE,45,0.0,0.0,93,0.02,,,0.02,WUHU21623XXSP,2013-03-03 12:13:00,
2013-03-03 04:19:00,36.5,34.6,30.25,NE,45,0.0,0.0,93,0.02,,,0.02,WUHU21623XXSP,2013-03-03 12:19:00,
2013-03-03 04:26:00,36.5,34.6,30.25,NE,45,0.0,0.0,93,0.02,,,0.02,WUHU21623XXSP,2013-03-03 12:26:00,
2013-03-03 04:34:00,36.5,34.6,30.25,NE,45,0.0,0.0,93,0.02,,,0.02,WUHU21623XXSP,2013-03-03 12:34:00,
2013-03-03 04:39:00,36.5,34.6,30.25,NE,45,0.0,0.0,93,0.02,,,0.02,WUHU21623XXSP,2013-03-03 12:39:00,
2013-03-03 04:50:00,36.5,34.6,30.25,NE,45,0.0,0.0,93,0.02,,,0.02,WUHU21623XXSP,2013-03-03 12:50:00,
2013-03-03 04:51:00,36.5,34.6,30.26,NE,45,0.0,0.0,93,0.00,,,0.02,WUHU21623XXSP,2013-03-03 12:51:00,
2013-03-03 04:57:00,36.5,34.6,30.26,NE,45,0.0,0.0,93,0.00,,,0.02,WUHU21623XXSP,2013-03-03 12:57:00,
2013-03-03 05:03:00,36.5,34.6,30.26,NE,45,0.0,0.0,93,0.00,,,0.02,WUHU21623XXSP,2013-03-03 13:03:00,
2013-03-03 05:06:00,36.5,34.6,30.26,NE,45,0.0,0.0,93,0.00,,,0.02,WUHU21623XXSP,2013-03-03 13:06:00,
2013-03-03 05:13:00,36.5,34.6,30.26,NE,45,0.0,0.0,93,0.00,,,0.02,WUHU21623XXSP,2013-03-03 13:13:00,
2013-03-03 05:18:00,36.5,34.6,30.27,NNE,22,0.0,0.0,93,0.00,,,0.02,WUHU21623XXSP,2013-03-03 13:18:00,
2013-03-03 05:24:00,36.5,34.6,30.27,NNE,22,0.0,2.2,93,0.00,,,0.02,WUHU21623XXSP,2013-03-03 13:24:00,
2013-03-03 05:32:00,36.3,34.4,30.26,WSW,247,0.0,2.5,93,0.02,,,0.04,WUHU21623XXSP,2013-03-03 13:32:00,
2013-03-03 05:37:00,36.3,34.4,30.27,West,270,0.0,0.0,93,0.02,,,0.04,WUHU21623XXSP,2013-03-03 13:37:00,
2013-03-03 05:42:00,36.1,34.3,30.27,West,270,0.0,0.0,93,0.02,,,0.04,WUHU21623XXSP,2013-03-03 13:42:00,
2013-03-03 05:53:00,36.1,34.3,30.27,West,270,0.0,0.0,93,0.02,,,0.04,WUHU21623XXSP,2013-03-03 13:53:00,
2013-03-03 05:58:00,36.1,34.3,30.27,West,270,0.0,0.0,93,0.02,,,0.04,WUHU21623XXSP,2013-03-03 13:58:00,
2013-03-03 06:04:00,36.1,34.3,30.27,West,270,0.0,0.0,93,0.02,,,0.04,WUHU21623XXSP,2013-03-03 14:04:00,
2013-03-03 06:09:00,36.1,34.5,30.27,West,270,0.0,0.0,94,0.02,,,0.04,WUHU21623XXSP,2013-03-03 14:09:00,
2013-03-03 06:20:00,36.1,34.5,30.27,West,270,0.0,0.0,94,0.02,,,0.04,WUHU21623XXSP,2013-03-03 14:20:00,
2013-03-03 06:25:00,36.1,34.5,30.27,West,270,0.0,0.0,94,0.00,,,0.04,WUHU21623XXSP,2013-03-03 14:25:00,
2013-03-03 06:30:00,36.0,34.3,30.28,West,270,0.0,0.0,94,0.00,,,0.04,WUHU21623XXSP,2013-03-03 14:30:00,
2013-03-03 06:42:00,35.8,34.2,30.27,West,270,0.0,0.0,94,0.00,,,0.04,WUHU21623XXSP,2013-03-03 14:42:00,
2013-03-03 06:47:00,35.4,33.8,30.28,West,270,0.0,0.0,94,0.00,,,0.04,WUHU21623XXSP,2013-03-03 14:47:00,
2013-03-03 06:52:00,35.4,33.8,30.28,West,270,0.0,0.0,94,0.00,,,0.04,WUHU21623XXSP,2013-03-03 14:52:00,
2013-03-03 06:59:00,35.4,33.8,30.28,West,270,0.0,0.0,94,0.00,,,0.04,WUHU21623XXSP,2013-03-03 14:59:00,
2013-03-03 07:04:00,35.2,33.6,30.28,West,270,0.0,0.0,94,0.00,,,0.04,WUHU21623XXSP,2013-03-03 15:04:00,
2013-03-03 07:10:00,35.2,33.6,30.29,West,270,0.0,0.0,94,0.00,,,0.04,WUHU21623XXSP,2013-03-03 15:10:00,
2013-03-03 07:17:00,35.2,33.6,30.28,West,270,0.0,0.0,94,0.00,,,0.04,WUHU21623XXSP,2013-03-03 15:17:00,
2013-03-03 07:22:00,35.2,33.6,30.28,West,270,0.0,0.0,94,0.00,,,0.04,WUHU21623XXSP,2013-03-03 15:22:00,
2013-03-03 07:27:00,35.2,33.6,30.28,West,270,0.0,0.0,94,0.00,,,0.04,WUHU21623XXSP,2013-03-03 15:27:00,
2013-03-03 07:33:00,35.2,33.6,30.28,West,270,0.0,0.0,94,0.00,,,0.04,WUHU21623XXSP,2013-03-03 15:33:00,
2013-03-03 07:43:00,35.4,33.8,30.28,West,270,0.0,0.0,94,0.00,,,0.04,WUHU21623XXSP,2013-03-03 15:43:00,
2013-03-03 07:56:00,35.6,34.0,30.28,West,270,0.0,0.0,94,0.00,,,0.04,WUHU21623XXSP,2013-03-03 15:56:00,
2013-03-03 08:01:00,36.0,34.3,30.28,West,270,0.0,0.0,94,0.00,,,0.04,WUHU21623XXSP,2013-03-03 16:01:00,
2013-03-03 08:06:00,36.7,35.1,30.28,West,270,0.0,0.0,94,0.00,,,0.04,WUHU21623XXSP,2013-03-03 16:06:00,
2013-03-03 08:11:00,37.0,35.4,30.28,West,270,0.0,0.0,94,0.00,,,0.04,WUHU21623XXSP,2013-03-03 16:11:00,
2013-03-03 08:16:00,37.2,35.6,30.28,West,270,0.0,0.0,94,0.00,,,0.04,WUHU21623XXSP,2013-03-03 16:16:00,
2013-03-03 08:24:00,37.4,35.8,30.29,West,270,0.0,0.0,94,0.00,,,0.04,WUHU21623XXSP,2013-03-03 16:24:00,
2013-03-03 08:32:00,38.3,36.7,30.29,SSE,157,0.0,0.9,94,0.00,,,0.04,WUHU21623XXSP,2013-03-03 16:32:00,
2013-03-03 08:37:00,38.8,37.2,30.29,South,180,0.0,2.2,94,0.00,,,0.04,WUHU21623XXSP,2013-03-03 16:37:00,
2013-03-03 08:43:00,39.0,37.4,30.29,South,180,0.0,2.2,94,0.00,,,0.04,WUHU21623XXSP,2013-03-03 16:43:00,
2013-03-03 08:49:00,39.4,37.8,30.29,South,180,0.0,1.3,94,0.00,,,0.04,WUHU21623XXSP,2013-03-03 16:49:00,
2013-03-03 08:55:00,39.7,38.1,30.29,South,180,0.0,0.0,94,0.00,,,0.04,WUHU21623XXSP,2013-03-03 16:55:00,
2013-03-03 09:02:00,40.5,38.8,30.28,SSE,157,0.0,0.0,94,0.00,,,0.04,WUHU21623XXSP,2013-03-03 17:02:00,
2013-03-03 09:10:00,40.6,39.0,30.29,SSE,157,0.7,0.7,94,0.00,,,0.04,WUHU21623XXSP,2013-03-03 17:10:00,
2013-03-03 09:18:00,41.4,39.7,30.29,SE,135,0.0,1.1,94,0.00,,,0.04,WUHU21623XXSP,2013-03-03 17:18:00,
2013-03-03 09:23:00,42.1,40.5,30.29,SE,135,2.0,3.1,94,0.00,,,0.04,WUHU21623XXSP,2013-03-03 17:23:00,
2013-03-03 09:30:00,42.3,40.6,30.29,SE,135,0.0,3.1,94,0.00,,,0.04,WUHU21623XXSP,2013-03-03 17:30:00,
2013-03-03 09:41:00,42.6,41.0,30.28,South,180,0.0,1.3,94,0.00,,,0.04,WUHU21623XXSP,2013-03-03 17:41:00,
2013-03-03 09:46:00,43.3,41.5,30.29,SSE,157,3.6,3.6,93,0.00,,,0.04,WUHU21623XXSP,2013-03-03 17:46:00,
2013-03-03 09:51:00,43.2,41.3,30.29,SSE,157,1.3,3.8,93,0.00,,,0.04,WUHU21623XXSP,2013-03-03 17:51:00,
2013-03-03 09:56:00,43.2,41.0,30.29,South,180,0.4,3.8,92,0.00,,,0.04,WUHU21623XXSP,2013-03-03 17:56:00,
2013-03-03 10:01:00,43.3,41.2,30.29,SSE,157,0.7,5.4,92,0.00,,,0.04,WUHU21623XXSP,2013-03-03 18:01:00,
2013-03-03 10:08:00,43.3,40.9,30.29,SSE,157,4.3,5.6,91,0.00,,,0.04,WUHU21623XXSP,2013-03-03 18:08:00,
2013-03-03 10:15:00,43.0,40.5,30.29,SSE,157,2.2,5.6,91,0.00,,,0.04,WUHU21623XXSP,2013-03-03 18:15:00,
2013-03-03 10:21:00,42.6,40.2,30.29,SSE,157,0.0,4.3,91,0.00,,,0.04,WUHU21623XXSP,2013-03-03 18:21:00,
2013-03-03 10:28:00,42.6,39.9,30.29,ESE,112,0.7,0.7,90,0.00,,,0.04,WUHU21623XXSP,2013-03-03 18:28:00,
2013-03-03 10:33:00,41.7,39.0,30.28,ESE,112,0.0,1.1,90,0.02,,,0.06,WUHU21623XXSP,2013-03-03 18:33:00,
2013-03-03 10:38:00,41.5,38.5,30.28,SSE,157,0.0,3.4,89,0.04,,,0.08,WUHU21623XXSP,2013-03-03 18:38:00,
2013-03-03 10:43:00,40.8,37.8,30.29,NE,45,0.0,3.4,89,0.04,,,0.08,WUHU21623XXSP,2013-03-03 18:43:00,
2013-03-03 10:51:00,40.5,37.5,30.28,SSW,202,0.0,3.8,89,0.04,,,0.08,WUHU21623XXSP,2013-03-03 18:51:00,
2013-03-03 10:57:00,40.5,37.5,30.28,NE,45,1.1,3.8,89,0.04,,,0.08,WUHU21623XXSP,2013-03-03 18:57:00,
2013-03-03 11:03:00,40.1,37.1,30.28,NE,45,1.6,2.5,89,0.04,,,0.08,WUHU21623XXSP,2013-03-03 19:03:00,
2013-03-03 11:10:00,40.1,37.1,30.28,SSE,157,0.0,2.2,89,0.04,,,0.08,WUHU21623XXSP,2013-03-03 19:10:00,
2013-03-03 11:16:00,40.3,37.6,30.28,SSE,157,0.0,1.6,90,0.04,,,0.08,WUHU21623XXSP,2013-03-03 19:16:00,
2013-03-03 11:21:00,40.6,37.9,30.28,ENE,67,2.9,2.9,90,0.04,,,0.08,WUHU21623XXSP,2013-03-03 19:21:00,
2013-03-03 11:31:00,40.8,38.1,30.28,SE,135,0.0,2.9,90,0.02,,,0.08,WUHU21623XXSP,2013-03-03 19:31:00,
2013-03-03 11:36:00,41.0,38.0,30.28,ESE,112,0.0,0.7,89,0.00,,,0.08,WUHU21623XXSP,2013-03-03 19:36:00,
2013-03-03 11:43:00,41.4,38.4,30.28,SE,135,0.0,0.7,89,0.00,,,0.08,WUHU21623XXSP,2013-03-03 19:43:00,
2013-03-03 11:48:00,41.5,38.5,30.28,ENE,67,0.9,2.5,89,0.00,,,0.08,WUHU21623XXSP,2013-03-03 19:48:00,
2013-03-03 11:55:00,41.5,38.5,30.29,NE,45,0.0,2.5,89,0.00,,,0.08,WUHU21623XXSP,2013-03-03 19:55:00,
2013-03-03 12:02:00,41.5,38.2,30.28,NE,45,0.0,0.9,88,0.00,,,0.08,WUHU21623XXSP,2013-03-03 20:02:00,
2013-03-03 12:07:00,41.5,38.2,30.29,NNE,22,0.7,0.7,88,0.02,,,0.10,WUHU21623XXSP,2013-03-03 20:07:00,
2013-03-03 12:14:00,41.4,38.0,30.29,NNE,22,0.0,0.9,88,0.02,,,0.10,WUHU21623XXSP,2013-03-03 20:14:00,
2013-03-03 12:23:00,41.5,38.2,30.29,NE,45,0.0,0.0,88,0.02,,,0.10,WUHU21623XXSP,2013-03-03 20:23:00,
2013-03-03 12:28:00,41.9,38.9,30.29,SSE,157,0.0,1.3,89,0.02,,,0.10,WUHU21623XXSP,2013-03-03 20:28:00,
2013-03-03 12:33:00,43.0,39.7,30.29,South,180,0.9,1.8,88,0.02,,,0.10,WUHU21623XXSP,2013-03-03 20:33:00,
2013-03-03 12:38:00,43.7,40.4,30.29,SSE,157,0.0,1.8,88,0.02,,,0.10,WUHU21623XXSP,2013-03-03 20:38:00,
2013-03-03 12:44:00,43.9,40.6,30.29,SSE,157,0.0,1.8,88,0.02,,,0.10,WUHU21623XXSP,2013-03-03 20:44:00,
2013-03-03 12:49:00,44.8,40.9,30.29,NW,315,2.2,3.1,86,0.02,,,0.10,WUHU21623XXSP,2013-03-03 20:49:00,
2013-03-03 12:56:00,44.4,40.5,30.30,NNW,337,8.7,8.7,86,0.04,,,0.12,WUHU21623XXSP,2013-03-03 20:56:00,
2013-03-03 13:01:00,43.2,38.6,30.30,North,0,0.0,8.7,84,0.06,,,0.14,WUHU21623XXSP,2013-03-03 21:01:00,
2013-03-03 13:06:00,42.4,37.9,30.30,NNE,22,3.4,6.3,84,0.04,,,0.14,WUHU21623XXSP,2013-03-03 21:06:00,
2013-03-03 13:11:00,42.1,37.9,30.30,NW,315,3.1,5.4,85,0.04,,,0.14,WUHU21623XXSP,2013-03-03 21:11:00,
2013-03-03 13:19:00,41.7,37.5,30.30,NNW,337,0.0,4.7,85,0.04,,,0.14,WUHU21623XXSP,2013-03-03 21:19:00,
2013-03-03 13:25:00,41.9,38.0,30.30,North,0,4.9,5.6,86,0.04,,,0.14,WUHU21623XXSP,2013-03-03 21:25:00,
2013-03-03 13:34:00,42.1,38.2,30.30,North,0,4.9,5.6,86,0.04,,,0.14,WUHU21623XXSP,2013-03-03 21:34:00,
2013-03-03 13:39:00,41.5,37.3,30.29,North,0,0.4,6.7,85,0.04,,,0.14,WUHU21623XXSP,2013-03-03 21:39:00,
2013-03-03 13:45:00,41.4,37.4,30.29,NNE,22,0.0,6.7,86,0.04,,,0.14,WUHU21623XXSP,2013-03-03 21:45:00,
2013-03-03 13:52:00,41.5,37.6,30.29,NNE,22,1.1,3.4,86,0.02,,,0.14,WUHU21623XXSP,2013-03-03 21:52:00,
2013-03-03 13:57:00,42.1,38.5,30.29,NNE,22,1.6,4.7,87,0.02,,,0.14,WUHU21623XXSP,2013-03-03 21:57:00,
2013-03-03 14:06:00,42.4,38.5,30.29,NW,315,2.7,4.7,86,0.00,,,0.14,WUHU21623XXSP,2013-03-03 22:06:00,
2013-03-03 14:13:00,43.2,39.2,30.29,NW,315,0.0,2.9,86,0.00,,,0.14,WUHU21623XXSP,2013-03-03 22:13:00,
2013-03-03 14:25:00,44.4,40.2,30.30,WNW,292,0.0,2.7,85,0.00,,,0.14,WUHU21623XXSP,2013-03-03 22:25:00,
2013-03-03 14:34:00,44.6,40.1,30.30,WNW,292,0.0,0.0,84,0.00,,,0.14,WUHU21623XXSP,2013-03-03 22:34:00,
2013-03-03 14:41:00,44.8,40.2,30.30,WNW,292,0.0,0.0,84,0.00,,,0.14,WUHU21623XXSP,2013-03-03 22:41:00,
2013-03-03 14:46:00,44.8,40.2,30.30,WNW,292,0.0,0.0,84,0.00,,,0.14,WUHU21623XXSP,2013-03-03 22:46:00,
2013-03-03 14:51:00,45.1,40.6,30.30,WNW,292,0.0,0.0,84,0.00,,,0.14,WUHU21623XXSP,2013-03-03 22:51:00,
2013-03-03 14:56:00,46.6,42.0,30.30,SSE,157,2.5,3.4,84,0.00,,,0.14,WUHU21623XXSP,2013-03-03 22:56:00,
2013-03-03 15:01:00,46.9,42.0,30.30,SSE,157,0.0,3.4,83,0.00,,,0.14,WUHU21623XXSP,2013-03-03 23:01:00,
2013-03-03 15:11:00,47.3,42.4,30.30,WSW,247,1.6,2.9,83,0.00,,,0.14,WUHU21623XXSP,2013-03-03 23:11:00,
2013-03-03 15:19:00,47.1,41.9,30.29,WSW,247,0.0,2.9,82,0.00,,,0.14,WUHU21623XXSP,2013-03-03 23:19:00,
2013-03-03 15:24:00,46.9,41.4,30.29,WSW,247,0.0,0.0,81,0.00,,,0.14,WUHU21623XXSP,2013-03-03 23:24:00,
2013-03-03 15:29:00,46.9,41.4,30.30,WSW,247,0.0,0.0,81,0.00,,,0.14,WUHU21623XXSP,2013-03-03 23:29:00,
2013-03-03 15:35:00,46.8,41.0,30.30,WSW,247,0.0,0.0,80,0.00,,,0.14,WUHU21623XXSP,2013-03-03 23:35:00,
2013-03-03 15:42:00,46.9,41.1,30.30,WSW,247,0.0,0.0,80,0.00,,,0.14,WUHU21623XXSP,2013-03-03 23:42:00,
2013-03-03 15:47:00,47.3,41.5,30.29,SE,135,0.0,0.9,80,0.00,,,0.14,WUHU21623XXSP,2013-03-03 23:47:00,
2013-03-03 15:52:00,47.5,41.3,30.29,SE,135,0.9,1.1,79,0.00,,,0.14,WUHU21623XXSP,2013-03-03 23:52:00,
2013-03-03 15:58:00,47.5,41.3,30.29,SSE,157,0.0,2.2,79,0.00,,,0.14,WUHU21623XXSP,2013-03-03 23:58:00,
2013-03-03 16:04:00,47.8,41.6,30.30,SSW,202,1.3,2.2,79,0.00,,,0.14,WUHU21623XXSP,2013-03-04 00:04:00,
2013-03-03 16:12:00,48.0,41.4,30.29,WSW,247,0.0,1.3,78,0.00,,,0.14,WUHU21623XXSP,2013-03-04 00:12:00,
2013-03-03 16:17:00,48.0,41.1,30.29,WSW,247,0.0,0.2,77,0.00,,,0.14,WUHU21623XXSP,2013-03-04 00:17:00,
2013-03-03 16:22:00,47.7,40.1,30.29,WSW,247,0.0,0.2,75,0.00,,,0.14,WUHU21623XXSP,2013-03-04 00:22:00,
2013-03-03 16:30:00,47.5,39.9,30.29,WSW,247,0.0,0.7,75,0.00,,,0.14,WUHU21623XXSP,2013-03-04 00:30:00,
2013-03-03 16:37:00,47.1,38.9,30.29,West,270,0.0,0.0,73,0.00,,,0.14,WUHU21623XXSP,2013-03-04 00:37:00,
2013-03-03 16:42:00,46.6,38.1,30.29,SE,135,0.0,2.7,72,0.00,,,0.14,WUHU21623XXSP,2013-03-04 00:42:00,
2013-03-03 16:47:00,46.2,37.7,30.29,SE,135,0.0,2.7,72,0.00,,,0.14,WUHU21623XXSP,2013-03-04 00:47:00,
2013-03-03 16:55:00,46.0,37.9,30.29,SE,135,0.9,2.2,73,0.00,,,0.14,WUHU21623XXSP,2013-03-04 00:55:00,
2013-03-03 17:00:00,45.1,37.7,30.29,SW,225,0.0,1.6,75,0.00,,,0.14,WUHU21623XXSP,2013-03-04 01:00:00,
2013-03-03 17:08:00,45.0,37.8,30.30,SW,225,0.0,1.6,76,0.02,,,0.16,WUHU21623XXSP,2013-03-04 01:08:00,
2013-03-03 17:14:00,44.6,37.5,30.30,SW,225,0.0,0.0,76,0.02,,,0.16,WUHU21623XXSP,2013-03-04 01:14:00,
2013-03-03 17:19:00,43.9,37.1,30.30,SE,135,0.0,0.0,77,0.02,,,0.16,WUHU21623XXSP,2013-03-04 01:19:00,
2013-03-03 17:26:00,43.7,37.3,30.30,SE,135,0.0,0.0,78,0.02,,,0.16,WUHU21623XXSP,2013-03-04 01:26:00,
2013-03-03 17:31:00,43.5,37.1,30.30,SE,135,0.0,0.0,78,0.02,,,0.16,WUHU21623XXSP,2013-03-04 01:31:00,
2013-03-03 17:37:00,43.5,37.4,30.30,SE,135,0.0,0.0,79,0.02,,,0.16,WUHU21623XXSP,2013-03-04 01:37:00,
2013-03-03 17:44:00,43.2,37.4,30.30,SE,135,0.0,0.0,80,0.02,,,0.16,WUHU21623XXSP,2013-03-04 01:44:00,
2013-03-03 17:50:00,43.0,37.5,30.30,SE,135,0.0,0.0,81,0.02,,,0.16,WUHU21623XXSP,2013-03-04 01:50:00,
2013-03-03 17:57:00,42.4,37.3,30.30,SE,135,0.0,0.0,82,0.02,,,0.16,WUHU21623XXSP,2013-03-04 01:57:00,
2013-03-03 18:03:00,42.1,37.2,30.30,SE,135,0.0,0.0,83,0.00,,,0.16,WUHU21623XXSP,2013-03-04 02:03:00,
2013-03-03 18:08:00,41.4,36.5,30.30,SE,135,0.0,0.0,83,0.00,,,0.16,WUHU21623XXSP,2013-03-04 02:08:00,
2013-03-03 18:19:00,41.2,36.3,30.30,SE,135,0.0,0.0,84,0.00,,,0.16,WUHU21623XXSP,2013-03-04 02:19:00,
2013-03-03 18:24:00,40.3,35.8,30.31,SE,135,0.0,0.0,84,0.00,,,0.16,WUHU21623XXSP,2013-03-04 02:24:00,
2013-03-03 18:29:00,39.9,35.7,30.31,SE,135,0.0,0.0,85,0.00,,,0.16,WUHU21623XXSP,2013-03-04 02:29:00,
2013-03-03 18:34:00,39.7,35.6,30.31,SE,135,0.0,0.0,85,0.00,,,0.16,WUHU21623XXSP,2013-03-04 02:34:00,
2013-03-03 18:39:00,39.4,35.2,30.31,SE,135,0.0,0.0,85,0.00,,,0.16,WUHU21623XXSP,2013-03-04 02:39:00,
2013-03-03 18:45:00,39.4,35.2,30.32,SE,135,0.0,0.0,85,0.00,,,0.16,WUHU21623XXSP,2013-03-04 02:45:00,
2013-03-03 18:52:00,38.8,35.0,30.31,SE,135,0.0,0.0,86,0.00,,,0.16,WUHU21623XXSP,2013-03-04 02:52:00,
2013-03-03 18:59:00,38.3,34.4,30.32,SE,135,0.0,0.0,86,0.00,,,0.16,WUHU21623XXSP,2013-03-04 02:59:00,
2013-03-03 19:06:00,37.9,34.4,30.31,SE,135,0.0,0.0,87,0.00,,,0.16,WUHU21623XXSP,2013-03-04 03:06:00,
2013-03-03 19:13:00,37.8,34.2,30.31,SE,135,0.0,0.0,87,0.00,,,0.16,WUHU21623XXSP,2013-03-04 03:13:00,
2013-03-03 19:18:00,37.0,33.8,30.32,SE,135,0.0,0.0,88,0.00,,,0.16,WUHU21623XXSP,2013-03-04 03:18:00,
2013-03-03 19:25:00,36.7,33.4,30.32,SE,135,0.0,0.0,88,0.00,,,0.16,WUHU21623XXSP,2013-03-04 03:25:00,
2013-03-03 19:32:00,36.5,33.2,30.32,SE,135,0.0,0.0,88,0.00,,,0.16,WUHU21623XXSP,2013-03-04 03:32:00,
2013-03-03 19:37:00,36.1,32.9,30.32,SE,135,0.0,0.0,88,0.00,,,0.16,WUHU21623XXSP,2013-03-04 03:37:00,
2013-03-03 19:44:00,35.8,32.5,30.32,SW,225,0.0,0.0,88,0.00,,,0.16,WUHU21623XXSP,2013-03-04 03:44:00,
2013-03-03 19:50:00,35.4,32.1,30.32,SW,225,0.0,0.0,88,0.00,,,0.16,WUHU21623XXSP,2013-03-04 03:50:00,
2013-03-03 19:55:00,35.2,32.3,30.32,SSE,157,0.0,2.0,89,0.00,,,0.16,WUHU21623XXSP,2013-03-04 03:55:00,
2013-03-03 20:02:00,34.9,31.9,30.32,WSW,247,0.0,2.0,89,0.00,,,0.16,WUHU21623XXSP,2013-03-04 04:02:00,
2013-03-03 20:07:00,34.3,31.4,30.32,South,180,0.0,0.0,89,0.00,,,0.16,WUHU21623XXSP,2013-03-04 04:07:00,
2013-03-03 20:12:00,34.3,31.4,30.32,South,180,1.1,4.0,89,0.00,,,0.16,WUHU21623XXSP,2013-03-04 04:12:00,
2013-03-03 20:17:00,34.3,31.4,30.32,South,180,0.0,4.0,89,0.00,,,0.16,WUHU21623XXSP,2013-03-04 04:17:00,
2013-03-03 20:28:00,34.2,31.2,30.32,South,180,0.0,1.1,89,0.00,,,0.16,WUHU21623XXSP,2013-03-04 04:28:00,
2013-03-03 20:33:00,33.6,30.6,30.32,South,180,0.0,0.0,89,0.00,,,0.16,WUHU21623XXSP,2013-03-04 04:33:00,
2013-03-03 20:39:00,33.6,30.6,30.32,SSW,202,0.0,0.0,89,0.00,,,0.16,WUHU21623XXSP,2013-03-04 04:39:00,
2013-03-03 20:45:00,33.6,30.9,30.33,SSW,202,0.0,0.0,90,0.00,,,0.16,WUHU21623XXSP,2013-03-04 04:45:00,
2013-03-03 20:50:00,33.3,30.6,30.33,SSW,202,0.0,0.0,90,0.00,,,0.16,WUHU21623XXSP,2013-03-04 04:50:00,
2013-03-03 20:55:00,33.3,30.6,30.32,SSW,202,0.0,0.0,90,0.00,,,0.16,WUHU21623XXSP,2013-03-04 04:55:00,
2013-03-03 21:00:00,33.1,30.5,30.32,SSW,202,0.0,0.0,90,0.00,,,0.16,WUHU21623XXSP,2013-03-04 05:00:00,
2013-03-03 21:03:00,33.1,30.5,30.32,SSW,202,0.0,0.0,90,0.00,,,0.16,WUHU21623XXSP,2013-03-04 05:03:00,
2013-03-03 21:13:00,32.9,30.3,30.33,SSW,202,0.0,0.0,90,0.00,,,0.16,WUHU21623XXSP,2013-03-04 05:13:00,
2013-03-03 21:21:00,32.5,30.2,30.33,SSW,202,0.0,0.0,91,0.00,,,0.16,WUHU21623XXSP,2013-03-04 05:21:00,
2013-03-03 21:28:00,32.2,29.9,30.33,SSW,202,0.0,0.7,91,0.00,,,0.16,WUHU21623XXSP,2013-03-04 05:28:00,
2013-03-03 21:35:00,32.2,29.9,30.34,WSW,247,0.0,0.7,91,0.00,,,0.16,WUHU21623XXSP,2013-03-04 05:35:00,
2013-03-03 21:43:00,31.8,29.6,30.33,WSW,247,0.0,0.0,91,0.00,,,0.16,WUHU21623XXSP,2013-03-04 05:43:00,
2013-03-03 21:51:00,31.6,29.4,30.33,WSW,247,0.0,0.0,91,0.00,,,0.16,WUHU21623XXSP,2013-03-04 05:51:00,
2013-03-03 21:56:00,31.6,29.4,30.34,WSW,247,0.0,0.0,91,0.00,,,0.16,WUHU21623XXSP,2013-03-04 05:56:00,
2013-03-03 22:01:00,31.3,29.0,30.34,WSW,247,0.0,0.0,91,0.00,,,0.16,WUHU21623XXSP,2013-03-04 06:01:00,
2013-03-03 22:06:00,31.1,28.8,30.34,WSW,247,0.0,0.0,91,0.00,,,0.16,WUHU21623XXSP,2013-03-04 06:06:00,
2013-03-03 22:11:00,30.9,28.9,30.34,WSW,247,0.0,0.0,92,0.00,,,0.16,WUHU21623XXSP,2013-03-04 06:11:00,
2013-03-03 22:16:00,30.7,28.7,30.34,WSW,247,0.0,0.0,92,0.00,,,0.16,WUHU21623XXSP,2013-03-04 06:16:00,
2013-03-03 22:24:00,30.7,28.7,30.33,West,270,0.0,0.0,92,0.00,,,0.16,WUHU21623XXSP,2013-03-04 06:24:00,
2013-03-03 22:30:00,30.6,28.5,30.34,West,270,0.0,0.0,92,0.00,,,0.16,WUHU21623XXSP,2013-03-04 06:30:00,
2013-03-03 22:37:00,30.4,28.4,30.34,West,270,0.0,0.0,92,0.00,,,0.16,WUHU21623XXSP,2013-03-04 06:37:00,
2013-03-03 22:42:00,30.0,28.0,30.34,West,270,0.0,0.0,92,0.00,,,0.16,WUHU21623XXSP,2013-03-04 06:42:00,
2013-03-03 22:48:00,30.0,28.0,30.34,West,270,0.0,0.0,92,0.00,,,0.16,WUHU21623XXSP,2013-03-04 06:48:00,
2013-03-03 22:55:00,29.8,27.8,30.34,West,270,0.0,0.0,92,0.00,,,0.16,WUHU21623XXSP,2013-03-04 06:55:00,
2013-03-03 23:04:00,29.8,27.8,30.34,West,270,0.0,0.0,92,0.00,,,0.16,WUHU21623XXSP,2013-03-04 07:04:00,
2013-03-03 23:09:00,29.7,27.6,30.34,West,270,0.0,0.0,92,0.00,,,0.16,WUHU21623XXSP,2013-03-04 07:09:00,
2013-03-03 23:15:00,29.5,27.5,30.34,West,270,0.0,1.1,92,0.00,,,0.16,WUHU21623XXSP,2013-03-04 07:15:00,
2013-03-03 23:21:00,29.5,27.5,30.34,West,270,0.0,1.1,92,0.00,,,0.16,WUHU21623XXSP,2013-03-04 07:21:00,
2013-03-03 23:26:00,29.3,27.3,30.34,West,270,0.0,0.0,92,0.00,,,0.16,WUHU21623XXSP,2013-03-04 07:26:00,
2013-03-03 23:34:00,29.1,27.1,30.34,West,270,0.0,0.0,92,0.00,,,0.16,WUHU21623XXSP,2013-03-04 07:34:00,
2013-03-03 23:39:00,29.1,27.1,30.33,West,270,0.0,0.0,92,0.00,,,0.16,WUHU21623XXSP,2013-03-04 07:39:00,
2013-03-03 23:46:00,29.1,27.1,30.34,West,270,0.0,0.0,92,0.00,,,0.16,WUHU21623XXSP,2013-03-04 07:46:00,
2013-03-03 23:51:00,28.9,27.2,30.34,West,270,0.0,0.0,93,0.00,,,0.16,WUHU21623XXSP,2013-03-04 07:51:00,
2013-03-03 23:56:00,28.9,27.2,30.34,West,270,0.0,0.0,93,0.00,,,0.16,WUHU21623XXSP,2013-03-04 07:56:00,